SCP
0 0 0 0 0 0 0 0 0 0 0 0 0 0 0 0 -0 -0 -0 -0 0 0 0 0 0 0 0 0 0 -0 -0 -0 -0
0 0 0 0 0 0 0 0 0 0 0 0 0 0 0 -0 -0 0 -0 0 0 0 0 0 0 0 0 0 0 0 -0 -0 -0
0 0 0 0 0 0 0 0 0 0 0 0 0 0 0 0 0 0 -0 0 0 0 0 0 0 0 0 0 0 0 -0 -0 -0
0 0 0 0 0 0 0 0 0 0 0 0 0 0 0 0 0 0 -0 0 0 0 0 0 0 0 0 0 0 0 -0 -0 -0
0 0 0 0 0 0 0 0 0 0 0 -0 0 0 0 -0 0 0 -0 0 0 0 0 0 0 0 0 0 0 -0 -0 -0 -0
0 0 0 0 0 0 0 0 0 0 0 -0 -0 0 0 0 0 -0 0 0 0 0 0 0 0 0 0 0 -0 -0 -0 -0 -0
0 0 0 0 0 0 0 0 0 0 0 -0 -0 0 0 0 0 -0 0 0 0 0 0 0 0 0 0 0 -0 -0 -0 -0 -0
1 1 1 1 0 1 0 0 0 0 0 0 -0 0 0 0 0 0 0 0 0 0 0 0 0 0 0 0 0 -0 -0 -0 -0
1 1 1 1 1 0 0 0 0 0 0 0 0 0 0 0 0 0 0 0 0 0 0 0 0 0 0 0 0 -0 -0 -0 -0
1 1 0 0 0 0 0 0 0 0 0 0 0 0 0 0 0 0 0 0 0 0 0 0 0 0 0 0 0 -0 -0 -0 -0
1 1 1 0 0 0 0 0 0 0 0 0 0 0 0 0 0 0 0 0 0 0 0 0 0 0 0 0 0 0 -0 -0 -0
1 1 1 1 0 0 0 0 0 0 0 0 0 0 0 0 0 0 0 0 0 0 0 0 0 0 0 0 0 0 0 -0 -0
0 1 1 1 1 0 0 0 0 0 0 0 0 0 0 0 0 0 0 0 0 0 0 0 0 0 0 0 0 0 0 0 0
1 1 1 1 0 0 0 0 0 0 0 0 0 0 0 0 0 0 0 0 0 0 0 0 0 0 0 0 0 0 0 0 0
1 1 1 0 0 0 0 0 0 0 0 0 0 0 0 0 0 0 0 0 0 0 0 0 0 0 0 0 0 0 0 0 0
1 1 1 0 0 0 0 0 0 0 0 0 0 0 0 0 0 0 0 0 0 0 0 0 0 0 0 0 0 0 0 0 0
1 1 0 0 0 0 0 0 0 0 0 0 0 0 0 0 0 0 0 0 0 0 0 0 0 0 0 0 0 0 0 0 0
0 0 0 0 0 0 0 0 0 0 0 0 0 0 0 0 0 0 0 0 0 0 0 0 0 0 0 0 0 0 0 0 0
0 0 -0 0 0 0 0 0 0 0 0 0 0 0 0 0 0 0 0 0 0 0 0 0 0 0 0 0 0 0 0 0 0
0 0 0 0 0 0 0 0 0 0 0 0 0 0 0 0 0 0 0 0 0 0 0 0 0 0 0 0 0 0 0 0 0
Wind_Speed_500mb
6 5 4 4 8 7 8 9 13 17 21 26 25 22 18 28 38 36 42 44 40 34 38 35 32 31 36 39 40 47 54 54 56
11 9 7 4 2 3 5 5 8 13 19 26 22 19 18 25 33 31 37 33 34 37 38 38 43 44 42 44 41 42 48 54 54
14 13 11 9 6 4 3 3 5 9 15 22 23 16 16 26 29 27 33 31 37 36 37 39 40 42 43 44 42 43 44 54 51
20 18 15 12 9 7 7 4 4 7 11 19 23 11 15 24 31 26 32 32 33 29 32 33 37 43 44 46 49 43 45 46 50
24 20 20 17 15 13 10 9 6 6 10 14 19 6 15 22 28 28 28 29 26 25 27 32 39 38 42 47 50 49 44 41 45
27 22 20 20 19 17 15 14 8 8 11 16 18 8 12 18 23 31 26 28 29 28 28 35 34 34 43 44 49 51 52 46 46
31 21 18 20 21 19 17 15 10 11 17 14 13 9 1 10 20 26 26 25 28 29 31 28 30 36 40 42 44 49 51 53 51
33 28 26 25 26 24 22 18 12 16 13 8 10 4 6 6 15 26 24 20 24 22 28 26 30 34 37 39 42 44 48 51 52
29 38 34 27 26 25 25 20 21 26 16 13 10 9 7 5 12 20 25 17 17 17 23 24 27 32 33 37 42 47 50 51 53
29 32 34 29 27 24 22 25 29 30 22 17 11 13 19 8 15 16 22 18 10 14 17 23 25 29 31 35 39 43 44 46 52
45 40 39 36 29 29 27 28 27 29 27 29 15 15 11 7 14 17 13 23 6 7 11 18 21 25 28 32 35 38 41 44 47
56 47 44 42 32 31 32 30 31 34 39 27 18 23 11 10 16 14 11 20 7 3 8 12 15 19 25 26 31 34 38 40 43
52 51 50 47 44 42 34 34 31 33 35 34 14 17 11 14 13 14 6 12 8 1 4 10 9 15 21 23 28 31 33 36 40
43 45 48 49 49 43 38 41 30 44 41 26 33 24 21 16 12 10 10 9 5 5 3 6 6 9 17 19 23 28 31 31 35
54 58 55 62 56 44 46 38 39 38 39 37 32 28 19 16 16 18 14 6 7 5 7 7 7 6 8 18 21 24 26 28 29
75 75 61 59 55 44 39 42 38 42 43 41 30 26 22 20 16 11 11 8 9 8 8 10 9 7 9 10 11 13 20 21 23
66 77 56 49 46 45 51 48 48 46 38 33 29 26 17 14 12 10 12 11 7 8 9 14 13 9 8 8 6 5 13 16 18
44 16 44 49 48 56 53 52 53 49 41 33 21 15 11 28 17 10 8 11 9 9 8 15 18 13 10 15 11 4 2 6 10
54 37 53 52 45 54 54 51 47 39 36 36 27 18 26 18 16 15 16 12 8 9 11 14 15 12 15 21 21 9 5 3 4
58 57 62 68 53 48 53 50 44 38 33 34 35 25 21 20 27 31 24 13 11 13 14 18 15 13 17 19 21 18 15 15 7
Wind_Direction_500mb
195 192 147 130 117 108 81 77 74 72 76 83 77 57 39 19 27 50 51 48 40 40 38 30 33 26 24 27 36 28 23 26 26
201 199 192 197 172 123 97 93 81 78 78 89 90 73 50 16 28 47 48 53 46 37 36 31 32 38 35 31 35 34 29 29 28
213 216 207 202 204 193 190 132 107 94 84 93 95 74 34 21 22 38 41 36 45 40 38 35 41 39 39 36 37 40 37 32 29
213 216 216 217 224 210 222 217 153 114 99 104 103 86 60 18 20 31 39 47 49 39 37 42 40 42 42 41 38 39 41 35 32
226 224 225 214 221 217 218 223 190 143 110 114 103 85 56 20 14 21 37 47 51 39 37 35 48 45 45 41 40 42 42 40 36
236 242 236 230 222 221 212 216 204 157 123 110 95 103 49 6 10 12 27 46 44 46 44 44 47 38 50 47 47 43 41 40 40
225 229 244 249 239 230 225 216 200 169 140 109 105 149 344 346 356 6 14 45 42 52 42 47 45 48 52 51 47 48 45 45 44
219 228 234 253 251 243 232 219 193 172 167 164 130 188 181 314 358 348 1 35 46 46 42 47 48 52 51 50 53 51 50 47 44
243 241 246 255 251 247 241 224 193 186 189 180 185 193 219 299 339 340 358 17 55 45 48 50 54 58 52 54 54 55 50 52 50
231 233 239 251 244 234 234 215 197 197 194 206 200 222 218 255 331 317 340 350 35 51 56 58 60 64 60 59 55 56 53 49 53
236 234 238 247 257 236 239 239 224 214 201 199 189 176 215 269 301 317 345 335 356 54 68 68 65 66 67 60 57 55 58 55 55
237 235 237 244 241 233 238 234 224 219 201 213 173 198 218 275 287 307 312 329 334 71 78 80 63 63 64 66 62 59 57 57 56
233 238 233 240 242 239 239 224 216 229 209 174 191 201 231 274 274 278 301 270 271 281 117 119 69 72 66 73 68 64 59 60 60
224 238 226 234 237 239 231 225 204 160 158 169 181 195 228 226 220 248 278 254 239 213 185 146 98 80 87 75 78 74 65 62 63
242 223 233 230 235 234 231 204 192 174 158 176 188 196 196 212 223 234 243 221 206 201 192 190 171 131 87 87 84 81 65 65 62
236 230 223 223 230 223 197 173 170 169 180 206 201 201 217 232 225 193 212 174 177 172 207 206 200 183 137 103 91 82 76 65 67
225 231 224 215 199 185 179 178 174 177 187 189 184 181 178 178 177 210 202 194 172 165 209 218 206 197 188 175 155 81 67 51 59
246 167 237 196 187 193 188 190 196 194 192 189 176 171 172 166 176 186 212 218 184 179 201 214 206 202 225 214 213 198 98 69 31
239 224 220 210 188 191 191 187 189 192 201 196 194 175 180 166 149 127 131 140 133 136 142 161 175 215 234 236 208 219 216 225 132
253 239 214 210 193 193 191 187 193 189 185 197 198 185 173 165 155 143 145 142 127 135 155 166 188 204 224 245 254 247 257 238 203
Wind_Speed_850mb
6 5 4 4 8 7 8 9 13 17 21 26 25 22 18 28 38 36 42 44 40 34 38 35 32 31 36 39 40 47 54 54 56
11 9 7 4 2 3 5 5 8 13 19 26 22 19 18 25 33 31 37 33 34 37 38 38 43 44 42 44 41 42 48 54 54
14 13 11 9 6 4 3 3 5 9 15 22 23 16 16 26 29 27 33 31 37 36 37 39 40 42 43 44 42 43 44 54 51
20 18 15 12 9 7 7 4 4 7 11 19 23 11 15 24 31 26 32 32 33 29 32 33 37 43 44 46 49 43 45 46 50
24 20 20 17 15 13 10 9 6 6 10 14 19 6 15 22 28 28 28 29 26 25 27 32 39 38 42 47 50 49 44 41 45
27 22 20 20 19 17 15 14 8 8 11 16 18 8 12 18 23 31 26 28 29 28 28 35 34 34 43 44 49 51 52 46 46
31 21 18 20 21 19 17 15 10 11 17 14 13 9 1 10 20 26 26 25 28 29 31 28 30 36 40 42 44 49 51 53 51
33 28 26 25 26 24 22 18 12 16 13 8 10 4 6 6 15 26 24 20 24 22 28 26 30 34 37 39 42 44 48 51 52
29 38 34 27 26 25 25 20 21 26 16 13 10 9 7 5 12 20 25 17 17 17 23 24 27 32 33 37 42 47 50 51 53
29 32 34 29 27 24 22 25 29 30 22 17 11 13 19 8 15 16 22 18 10 14 17 23 25 29 31 35 39 43 44 46 52
45 40 39 36 29 29 27 28 27 29 27 29 15 15 11 7 14 17 13 23 6 7 11 18 21 25 28 32 35 38 41 44 47
56 47 44 42 32 31 32 30 31 34 39 27 18 23 11 10 16 14 11 20 7 3 8 12 15 19 25 26 31 34 38 40 43
52 51 50 47 44 42 34 34 31 33 35 34 14 17 11 14 13 14 6 12 8 1 4 10 9 15 21 23 28 31 33 36 40
43 45 48 49 49 43 38 41 30 44 41 26 33 24 21 16 12 10 10 9 5 5 3 6 6 9 17 19 23 28 31 31 35
54 58 55 62 56 44 46 38 39 38 39 37 32 28 19 16 16 18 14 6 7 5 7 7 7 6 8 18 21 24 26 28 29
75 75 61 59 55 44 39 42 38 42 43 41 30 26 22 20 16 11 11 8 9 8 8 10 9 7 9 10 11 13 20 21 23
66 77 56 49 46 45 51 48 48 46 38 33 29 26 17 14 12 10 12 11 7 8 9 14 13 9 8 8 6 5 13 16 18
44 16 44 49 48 56 53 52 53 49 41 33 21 15 11 28 17 10 8 11 9 9 8 15 18 13 10 15 11 4 2 6 10
54 37 53 52 45 54 54 51 47 39 36 36 27 18 26 18 16 15 16 12 8 9 11 14 15 12 15 21 21 9 5 3 4
58 57 62 68 53 48 53 50 44 38 33 34 35 25 21 20 27 31 24 13 11 13 14 18 15 13 17 19 21 18 15 15 7
Wind_Direction_850mb
195 192 147 130 117 108 81 77 74 72 76 83 77 57 39 19 27 50 51 48 40 40 38 30 33 26 24 27 36 28 23 26 26
201 199 192 197 172 123 97 93 81 78 78 89 90 73 50 16 28 47 48 53 46 37 36 31 32 38 35 31 35 34 29 29 28
213 216 207 202 204 193 190 132 107 94 84 93 95 74 34 21 22 38 41 36 45 40 38 35 41 39 39 36 37 40 37 32 29
213 216 216 217 224 210 222 217 153 114 99 104 103 86 60 18 20 31 39 47 49 39 37 42 40 42 42 41 38 39 41 35 32
226 224 225 214 221 217 218 223 190 143 110 114 103 85 56 20 14 21 37 47 51 39 37 35 48 45 45 41 40 42 42 40 36
236 242 236 230 222 221 212 216 204 157 123 110 95 103 49 6 10 12 27 46 44 46 44 44 47 38 50 47 47 43 41 40 40
225 229 244 249 239 230 225 216 200 169 140 109 105 149 344 346 356 6 14 45 42 52 42 47 45 48 52 51 47 48 45 45 44
219 228 234 253 251 243 232 219 193 172 167 164 130 188 181 314 358 348 1 35 46 46 42 47 48 52 51 50 53 51 50 47 44
243 241 246 255 251 247 241 224 193 186 189 180 185 193 219 299 339 340 358 17 55 45 48 50 54 58 52 54 54 55 50 52 50
231 233 239 251 244 234 234 215 197 197 194 206 200 222 218 255 331 317 340 350 35 51 56 58 60 64 60 59 55 56 53 49 53
236 234 238 247 257 236 239 239 224 214 201 199 189 176 215 269 301 317 345 335 356 54 68 68 65 66 67 60 57 55 58 55 55
237 235 237 244 241 233 238 234 224 219 201 213 173 198 218 275 287 307 312 329 334 71 78 80 63 63 64 66 62 59 57 57 56
233 238 233 240 242 239 239 224 216 229 209 174 191 201 231 274 274 278 301 270 271 281 117 119 69 72 66 73 68 64 59 60 60
224 238 226 234 237 239 231 225 204 160 158 169 181 195 228 226 220 248 278 254 239 213 185 146 98 80 87 75 78 74 65 62 63
242 223 233 230 235 234 231 204 192 174 158 176 188 196 196 212 223 234 243 221 206 201 192 190 171 131 87 87 84 81 65 65 62
236 230 223 223 230 223 197 173 170 169 180 206 201 201 217 232 225 193 212 174 177 172 207 206 200 183 137 103 91 82 76 65 67
225 231 224 215 199 185 179 178 174 177 187 189 184 181 178 178 177 210 202 194 172 165 209 218 206 197 188 175 155 81 67 51 59
246 167 237 196 187 193 188 190 196 194 192 189 176 171 172 166 176 186 212 218 184 179 201 214 206 202 225 214 213 198 98 69 31
239 224 220 210 188 191 191 187 189 192 201 196 194 175 180 166 149 127 131 140 133 136 142 161 175 215 234 236 208 219 216 225 132
253 239 214 210 193 193 191 187 193 189 185 197 198 185 173 165 155 143 145 142 127 135 155 166 188 204 224 245 254 247 257 238 203